Irura, Spain
Current Conditions -  °F | °C
As of 9:30 PM on Wednesday 17 Dec 2014 (Local Time) from LESO Reporting Station
Broken Clouds Broken Clouds  
Wind Chill: 57°   Ceiling: 4500
Heat Index: 57°   Visibility: 6mi
Dew Point: 48°   Wind: 7mph
Humidity: 72%   Direction: NA
Pressure: 30.36"   Gusts: NA
Location:  43.17°N, 2.07°W
Report Text: LESO 172030Z VRB06KT 9999 FEW022 SCT032 BKN045 14/09 Q1028
Loading
Personal Weather Stations






























Interactive Weather Map New forecast layout! Learn more

10-Day Weather Forecast

Advertisements
Track Severe Weather on mobile